HK6REC-23 Weather Reports


time (UTC)temp
C
wind
direction
speed
KPH
gust
KPH
rain 1hr
cm
rain 24hr
cm
rain mn
cm
humidity
%
barometer
mb
20260503072424 15 311 0.0 0.0 0.00 0.00 0.00 97 1015.0
20260503071423 13 311 0.0 0.0 0.00 0.00 0.00 97 1015.0
20260503070422 15 311 0.0 0.0 0.00 0.00 0.00 97 1015.0
20260503054414 12 350 1.6 1.6 0.00 0.00 0.00 96 1016.0
20260503053413 12 350 1.6 1.6 0.00 0.00 0.00 96 1016.0
20260503052413 13 7 1.6 1.6 0.00 0.00 0.00 96 1017.0
20260503051412 13 7 1.6 1.6 0.00 0.00 0.00 96 1017.0
20260503050411 13 7 1.6 1.6 0.00 0.00 0.00 96 1017.0
20260503045410 13 7 1.6 1.6 0.00 0.00 0.00 96 1017.0
20260503044409 15 7 1.6 1.6 0.00 0.00 0.00 96 1017.0
20260503043408 12 314 1.6 1.6 0.00 0.00 0.00 96 1017.0
20260503042407 14 314 1.6 1.6 0.00 0.00 0.00 96 1017.0
20260503041406 16 314 1.6 1.6 0.00 0.00 0.00 96 1017.0
20260503040405 16 314 1.6 1.6 0.00 0.00 0.00 96 1017.0
20260503035404 12 314 1.6 1.6 0.00 0.00 0.00 96 1017.0
20260503034403 14 314 1.6 1.6 0.00 0.00 0.00 96 1017.0
20260503033402 16 314 1.6 1.6 0.00 0.00 0.00 96 1017.0
20260503032401 12 329 1.6 1.6 0.00 0.00 0.00 96 1017.0
20260503031400 12 329 1.6 1.6 0.00 0.00 0.00 96 1017.0
20260503030359 13 329 1.6 1.6 0.00 0.00 0.00 96 1017.0
20260503025358 15 329 1.6 1.6 0.00 0.00 0.00 96 1017.0
20260503024357 13 329 1.6 1.6 0.00 0.00 0.00 96 1017.0
20260503023357 15 329 1.6 1.6 0.00 0.00 0.00 96 1017.0
20260503022356 12 1 1.6 3.2 0.00 0.00 0.00 96 1016.0
20260503021355 12 1 1.6 3.2 0.00 0.00 0.00 96 1016.0
20260503020354 12 1 1.6 3.2 0.00 0.00 0.00 96 1016.0
20260503015353 13 1 1.6 3.2 0.00 0.00 0.00 96 1016.0
20260503014352 13 1 1.6 3.2 0.00 0.00 0.00 96 1016.0
20260503013351 13 1 1.6 3.2 0.00 0.00 0.00 96 1016.0
20260503012350 13 10 1.6 4.8 0.00 0.00 0.00 95 1015.0
20260503011349 15 10 1.6 4.8 0.00 0.00 0.00 95 1015.0
20260503010348 16 10 3.2 4.8 0.00 0.00 0.00 95 1015.0
20260503005347 12 10 3.2 4.8 0.00 0.00 0.00 96 1015.0
20260503004346 12 10 3.2 4.8 0.00 0.00 0.00 96 1015.0
20260503003346 13 298 1.6 4.8 0.00 0.00 0.00 96 1015.0
20260503002345 15 298 1.6 4.8 0.00 0.00 0.00 96 1014.0
20260503001344 16 298 1.6 4.8 0.00 0.00 0.00 96 1014.0
20260503000343 18 298 3.2 4.8 0.00 0.00 0.00 96 1014.0
20260502235342 13 298 3.2 4.8 0.00 0.00 0.00 95 1014.0
20260502234340 13 326 1.6 3.2 0.00 0.00 0.00 95 1014.0
20260502233339 13 326 1.6 3.2 0.00 0.00 0.00 95 1014.0
20260502232339 14 342 1.6 3.2 0.00 0.00 0.00 95 1014.0
20260502231337 14 342 1.6 3.2 0.00 0.00 0.00 95 1014.0
20260502230337 13 342 1.6 1.6 0.00 0.00 0.00 95 1014.0
20260502225336 15 342 1.6 3.2 0.00 0.00 0.00 95 1013.0
20260502224335 13 342 1.6 1.6 0.00 0.00 0.00 95 1013.0
20260502223334 15 342 1.6 3.2 0.00 0.00 0.00 95 1013.0
20260502222333 15 351 0.0 3.2 0.00 0.00 0.00 92 1013.0
20260502221332 16 351 0.0 3.2 0.00 0.00 0.00 92 1013.0
20260502220331 18 351 0.0 3.2 0.00 0.00 0.00 92 1013.0
20260502215330 13 351 0.0 3.2 0.00 0.00 0.00 93 1013.0
20260502214329 13 351 0.0 3.2 0.00 0.00 0.00 93 1013.0
20260502213328 13 351 0.0 3.2 0.00 0.00 0.00 93 1013.0
20260502212327 15 341 0.0 3.2 0.00 0.00 0.00 93 1012.0
20260502211326 15 341 0.0 3.2 0.00 0.00 0.00 93 1012.0
20260502210325 15 341 0.0 3.2 0.00 0.00 0.00 93 1012.0
20260502205324 14 341 0.0 3.2 0.00 0.00 0.00 94 1012.0
20260502204323 16 341 0.0 3.2 0.00 0.00 0.00 94 1012.0
20260502203322 17 341 0.0 3.2 0.00 0.00 0.00 94 1012.0
20260502202321 13 327 1.6 3.2 0.00 0.00 0.00 88 1012.0
20260502201320 13 327 1.6 3.2 0.00 0.00 0.00 88 1012.0
20260502200319 13 327 1.6 3.2 0.00 0.00 0.00 88 1012.0
20260502195318 15 327 1.6 3.2 0.00 0.00 0.00 88 1012.0
20260502194317 14 320 1.6 1.6 0.00 0.00 0.00 88 1013.0
20260502193316 16 320 1.6 1.6 0.00 0.00 0.00 88 1013.0
20260502192315 17 320 1.6 3.2 0.00 0.00 0.00 88 1014.0
20260502191314 16 320 1.6 1.6 0.00 0.00 0.00 88 1013.0
20260502190313 17 320 1.6 3.2 0.00 0.00 0.00 88 1013.0
20260502185312 15 320 1.6 3.2 0.00 0.00 0.00 90 1013.0
20260502184311 15 320 1.6 3.2 0.00 0.00 0.00 90 1013.0
20260502183310 15 320 1.6 3.2 0.00 0.00 0.00 90 1013.0
20260502182310 15 315 1.6 4.8 0.00 0.00 0.00 89 1014.0
20260502181309 16 315 1.6 4.8 0.00 0.00 0.00 89 1013.0
20260502180308 18 315 1.6 4.8 0.00 0.00 0.00 89 1013.0
20260502170302 18 295 0.0 6.4 0.00 0.00 0.00 85 1015.0
20260502164259 15 295 0.0 6.4 0.00 0.00 0.00 87 1014.0
20260502163259 15 295 0.0 6.4 0.00 0.00 0.00 87 1014.0
20260502162257 17 216 1.6 4.8 0.00 0.00 0.00 83 1015.0
20260502161257 18 216 1.6 4.8 0.00 0.00 0.00 83 1015.0
20260502160256 17 216 1.6 4.8 0.00 0.00 0.00 84 1015.0
20260502152252 16 159 1.6 1.6 0.00 0.00 0.00 86 1015.0
20260502151251 16 159 1.6 1.6 0.00 0.00 0.00 86 1014.0
20260502150250 17 159 1.6 1.6 0.00 0.00 0.00 86 1014.0
20260502130238 15 203 0.0 1.6 0.00 0.00 0.00 93 1015.0
20260502123236 16 203 0.0 1.6 0.00 0.00 0.00 93 1015.0
20260502122235 13 59 0.0 1.6 0.00 0.00 0.00 91 1015.0
20260502121234 13 59 0.0 1.6 0.00 0.00 0.00 91 1015.0
20260502120233 13 59 0.0 1.6 0.00 0.00 0.00 91 1015.0
20260502115232 14 88 0.0 1.6 0.00 0.00 0.00 91 1015.0
20260502114231 14 88 0.0 1.6 0.00 0.00 0.00 91 1015.0
20260502113230 14 88 0.0 1.6 0.00 0.00 0.00 91 1015.0
20260502112229 12 22 0.0 1.6 0.00 0.00 0.00 91 1014.0
20260502111228 13 22 0.0 1.6 0.00 0.00 0.00 91 1014.0
20260502110227 15 22 0.0 1.6 0.00 0.00 0.00 91 1014.0
20260502105226 12 22 0.0 1.6 0.00 0.00 0.00 94 1014.0
20260502104225 14 22 0.0 1.6 0.00 0.00 0.00 94 1014.0
20260502103224 16 22 0.0 1.6 0.00 0.00 0.00 94 1014.0
20260502102223 12 341 0.0 1.6 0.00 0.00 0.00 94 1014.0
20260502101222 12 341 0.0 1.6 0.00 0.00 0.00 94 1014.0
20260502100221 12 341 0.0 1.6 0.00 0.00 0.00 94 1014.0
20260502091216 13 360 0.0 0.0 0.00 0.00 0.00 91 1014.0
20260502090215 15 360 0.0 0.0 0.00 0.00 0.00 91 1014.0